Time,TemperatureF,DewpointF,PressureIn,WindDirection,WindDirectionDegrees,WindSpeedMPH,WindSpeedGustMPH,Humidity,HourlyPrecipIn,Conditions,Clouds,dailyrainin,SoftwareType,DateUTC
2013-01-16 00:00:00,35.2,32.5,30.25,ENE,65,1.0,3.0,90,0.05,,,0.16,meteohub,2013-01-16 05:00:00,
2013-01-16 00:01:00,35.2,32.5,30.26,NNE,27,1.0,3.0,90,0.06,,,0.17,meteohub,2013-01-16 05:01:00,
2013-01-16 00:07:00,35.2,32.9,30.26,ENE,72,0.0,3.0,91,0.06,,,0.00,meteohub,2013-01-16 05:07:00,
2013-01-16 00:12:00,35.2,32.9,30.26,NE,54,2.0,3.0,91,0.06,,,0.01,meteohub,2013-01-16 05:12:00,
2013-01-16 00:17:00,35.2,32.9,30.26,ENE,64,2.0,3.0,91,0.07,,,0.02,meteohub,2013-01-16 05:17:00,
2013-01-16 00:22:00,35.2,33.1,30.25,NE,43,1.0,3.0,92,0.06,,,0.02,meteohub,2013-01-16 05:22:00,
2013-01-16 00:27:00,35.2,33.1,30.26,NE,50,0.0,3.0,92,0.06,,,0.03,meteohub,2013-01-16 05:27:00,
2013-01-16 00:32:00,35.2,33.1,30.26,NE,50,1.0,2.0,92,0.07,,,0.04,meteohub,2013-01-16 05:32:00,
2013-01-16 00:37:00,35.1,32.9,30.26,ENE,69,1.0,4.0,92,0.06,,,0.04,meteohub,2013-01-16 05:37:00,
2013-01-16 00:42:00,35.1,33.3,30.26,ENE,57,3.0,4.0,93,0.07,,,0.05,meteohub,2013-01-16 05:42:00,
2013-01-16 00:47:00,34.9,33.1,30.25,ENE,60,3.0,4.0,93,0.08,,,0.06,meteohub,2013-01-16 05:47:00,
2013-01-16 00:52:00,35.1,33.3,30.25,NE,40,2.0,7.0,93,0.08,,,0.06,meteohub,2013-01-16 05:52:00,
2013-01-16 00:57:00,34.9,33.1,30.25,NE,46,3.0,7.0,93,0.08,,,0.07,meteohub,2013-01-16 05:57:00,
2013-01-16 01:02:00,34.9,33.1,30.25,NE,54,2.0,7.0,93,0.08,,,0.08,meteohub,2013-01-16 06:02:00,
2013-01-16 01:07:00,34.7,32.9,30.24,NE,34,3.0,6.0,93,0.09,,,0.09,meteohub,2013-01-16 06:07:00,
2013-01-16 01:12:00,34.5,32.7,30.23,ENE,67,2.0,6.0,93,0.09,,,0.10,meteohub,2013-01-16 06:12:00,
2013-01-16 01:17:00,34.5,32.7,30.23,ENE,68,3.0,5.0,93,0.08,,,0.10,meteohub,2013-01-16 06:17:00,
2013-01-16 01:22:00,34.3,32.7,30.23,East,87,1.0,5.0,94,0.09,,,0.11,meteohub,2013-01-16 06:22:00,
2013-01-16 01:27:00,34.3,32.7,30.23,ENE,67,1.0,5.0,94,0.09,,,0.12,meteohub,2013-01-16 06:27:00,
2013-01-16 01:32:00,34.3,32.7,30.23,ENE,57,2.0,5.0,94,0.08,,,0.12,meteohub,2013-01-16 06:32:00,
2013-01-16 01:37:00,34.3,32.7,30.22,ENE,58,3.0,6.0,94,0.09,,,0.13,meteohub,2013-01-16 06:37:00,
2013-01-16 01:42:00,34.3,32.7,30.22,ENE,63,2.0,6.0,94,0.09,,,0.13,meteohub,2013-01-16 06:42:00,
2013-01-16 01:47:00,34.2,32.5,30.22,NE,46,3.0,6.0,94,0.08,,,0.14,meteohub,2013-01-16 06:47:00,
2013-01-16 01:52:00,34.2,32.5,30.22,NE,47,2.0,6.0,94,0.07,,,0.14,meteohub,2013-01-16 06:52:00,
2013-01-16 01:57:00,34.2,32.5,30.22,NE,55,3.0,7.0,94,0.08,,,0.15,meteohub,2013-01-16 06:57:00,
2013-01-16 02:02:00,34.0,32.4,30.22,NE,44,3.0,7.0,94,0.07,,,0.15,meteohub,2013-01-16 07:02:00,
2013-01-16 02:07:00,34.0,32.4,30.22,NE,46,2.0,7.0,94,0.06,,,0.15,meteohub,2013-01-16 07:07:00,
2013-01-16 02:12:00,34.0,32.4,30.22,ENE,58,2.0,6.0,94,0.06,,,0.16,meteohub,2013-01-16 07:12:00,
2013-01-16 02:17:00,34.0,32.4,30.21,ENE,75,2.0,5.0,94,0.07,,,0.17,meteohub,2013-01-16 07:17:00,
2013-01-16 02:22:00,33.8,32.2,30.22,ENE,67,5.0,7.0,94,0.07,,,0.18,meteohub,2013-01-16 07:22:00,
2013-01-16 02:27:00,33.6,32.0,30.22,NE,51,2.0,7.0,94,0.07,,,0.19,meteohub,2013-01-16 07:27:00,
2013-01-16 02:32:00,33.6,32.0,30.22,ENE,70,1.0,10.0,94,0.07,,,0.19,meteohub,2013-01-16 07:32:00,
2013-01-16 02:37:00,33.6,32.0,30.22,ENE,58,3.0,10.0,94,0.07,,,0.20,meteohub,2013-01-16 07:37:00,
2013-01-16 02:42:00,33.4,31.8,30.22,NE,43,3.0,10.0,94,0.07,,,0.21,meteohub,2013-01-16 07:42:00,
2013-01-16 02:47:00,33.4,32.2,30.20,ENE,70,3.0,8.0,95,0.08,,,0.22,meteohub,2013-01-16 07:47:00,
2013-01-16 02:52:00,33.4,32.2,30.19,ENE,70,2.0,8.0,95,0.10,,,0.24,meteohub,2013-01-16 07:52:00,
2013-01-16 02:57:00,33.4,32.2,30.19,NE,55,2.0,8.0,95,0.10,,,0.25,meteohub,2013-01-16 07:57:00,
2013-01-16 03:02:00,33.3,32.0,30.19,ENE,63,3.0,10.0,95,0.11,,,0.26,meteohub,2013-01-16 08:02:00,
2013-01-16 03:07:00,33.3,32.0,30.19,ENE,68,5.0,10.0,95,0.12,,,0.27,meteohub,2013-01-16 08:07:00,
2013-01-16 03:12:00,33.3,32.0,30.17,NE,34,4.0,10.0,95,0.13,,,0.29,meteohub,2013-01-16 08:12:00,
2013-01-16 03:17:00,33.3,32.0,30.18,NE,47,4.0,7.0,95,0.13,,,0.30,meteohub,2013-01-16 08:17:00,
2013-01-16 03:22:00,33.3,32.0,30.18,ENE,68,4.0,7.0,95,0.13,,,0.31,meteohub,2013-01-16 08:22:00,
2013-01-16 03:27:00,33.3,32.0,30.17,ENE,70,3.0,9.0,95,0.14,,,0.33,meteohub,2013-01-16 08:27:00,
2013-01-16 03:32:00,33.3,32.0,30.17,ENE,75,2.0,9.0,95,0.14,,,0.34,meteohub,2013-01-16 08:32:00,
2013-01-16 03:37:00,33.3,32.0,30.17,East,81,3.0,9.0,95,0.15,,,0.35,meteohub,2013-01-16 08:37:00,
2013-01-16 03:42:00,33.3,32.0,30.18,NE,55,0.0,9.0,95,0.16,,,0.37,meteohub,2013-01-16 08:42:00,
2013-01-16 03:47:00,33.3,32.0,30.17,NE,51,1.0,7.0,95,0.16,,,0.39,meteohub,2013-01-16 08:47:00,
2013-01-16 03:52:00,33.3,32.0,30.17,North,1,2.0,6.0,95,0.17,,,0.41,meteohub,2013-01-16 08:52:00,
2013-01-16 03:57:00,33.3,32.0,30.17,ENE,59,3.0,7.0,95,0.18,,,0.43,meteohub,2013-01-16 08:57:00,
2013-01-16 04:03:00,33.3,32.0,30.17,NE,50,2.0,7.0,95,0.18,,,0.44,meteohub,2013-01-16 09:03:00,
2013-01-16 04:08:00,33.3,32.2,30.17,East,94,0.0,7.0,96,0.18,,,0.46,meteohub,2013-01-16 09:08:00,
2013-01-16 04:13:00,33.3,32.2,30.16,NE,46,3.0,6.0,96,0.19,,,0.48,meteohub,2013-01-16 09:13:00,
2013-01-16 04:18:00,33.1,32.0,30.16,ENE,65,1.0,6.0,96,0.19,,,0.49,meteohub,2013-01-16 09:18:00,
2013-01-16 04:23:00,33.3,32.2,30.16,NE,53,0.0,6.0,96,0.20,,,0.51,meteohub,2013-01-16 09:23:00,
2013-01-16 04:28:00,33.1,32.0,30.16,NE,42,0.0,5.0,96,0.19,,,0.52,meteohub,2013-01-16 09:28:00,
2013-01-16 04:33:00,33.3,32.2,30.16,ENE,60,1.0,6.0,96,0.19,,,0.53,meteohub,2013-01-16 09:33:00,
2013-01-16 04:38:00,33.3,32.2,30.17,NE,34,1.0,6.0,96,0.19,,,0.54,meteohub,2013-01-16 09:38:00,
2013-01-16 04:43:00,33.3,32.2,30.17,NE,56,1.0,6.0,96,0.17,,,0.54,meteohub,2013-01-16 09:43:00,
2013-01-16 04:48:00,33.3,32.2,30.17,ENE,65,2.0,5.0,96,0.15,,,0.54,meteohub,2013-01-16 09:48:00,
2013-01-16 04:53:00,33.1,32.0,30.17,NE,46,0.0,3.0,96,0.13,,,0.54,meteohub,2013-01-16 09:53:00,
2013-01-16 04:58:00,33.1,32.0,30.16,ENE,74,0.0,3.0,96,0.12,,,0.55,meteohub,2013-01-16 09:58:00,
2013-01-16 05:03:00,33.1,32.0,30.15,East,84,0.0,2.0,96,0.11,,,0.55,meteohub,2013-01-16 10:03:00,
2013-01-16 05:08:00,33.1,32.0,30.14,ENE,72,0.0,2.0,96,0.10,,,0.56,meteohub,2013-01-16 10:08:00,
2013-01-16 05:13:00,33.1,32.0,30.14,ENE,68,0.0,3.0,96,0.09,,,0.57,meteohub,2013-01-16 10:13:00,
2013-01-16 05:18:00,33.1,32.0,30.14,East,81,0.0,3.0,96,0.07,,,0.57,meteohub,2013-01-16 10:18:00,
2013-01-16 05:23:00,33.1,32.0,30.14,East,89,1.0,3.0,96,0.07,,,0.58,meteohub,2013-01-16 10:23:00,
2013-01-16 05:28:00,33.1,32.0,30.14,East,82,1.0,3.0,96,0.06,,,0.58,meteohub,2013-01-16 10:28:00,
2013-01-16 05:33:00,33.1,32.0,30.14,East,79,0.0,3.0,96,0.06,,,0.59,meteohub,2013-01-16 10:33:00,
2013-01-16 05:38:00,33.3,32.2,30.14,East,85,0.0,3.0,96,0.05,,,0.59,meteohub,2013-01-16 10:38:00,
2013-01-16 05:43:00,33.3,32.2,30.14,NW,326,0.0,2.0,96,0.06,,,0.60,meteohub,2013-01-16 10:43:00,
2013-01-16 05:48:00,33.3,32.2,30.12,East,101,0.0,3.0,96,0.07,,,0.61,meteohub,2013-01-16 10:48:00,
2013-01-16 05:53:00,33.3,32.5,30.13,ENE,70,1.0,4.0,97,0.07,,,0.61,meteohub,2013-01-16 10:53:00,
2013-01-16 05:58:00,33.3,32.5,30.12,East,82,0.0,4.0,97,0.07,,,0.62,meteohub,2013-01-16 10:58:00,
2013-01-16 06:03:00,33.3,32.5,30.10,NW,313,1.0,4.0,97,0.07,,,0.62,meteohub,2013-01-16 11:03:00,
2013-01-16 06:08:00,33.4,32.7,30.11,ESE,112,0.0,4.0,97,0.07,,,0.63,meteohub,2013-01-16 11:08:00,
2013-01-16 06:13:00,33.4,32.7,30.11,ENE,78,1.0,4.0,97,0.06,,,0.63,meteohub,2013-01-16 11:13:00,
2013-01-16 06:18:00,33.4,32.7,30.11,ENE,74,2.0,4.0,97,0.07,,,0.64,meteohub,2013-01-16 11:18:00,
2013-01-16 06:23:00,33.4,32.7,30.11,ENE,75,2.0,3.0,97,0.06,,,0.64,meteohub,2013-01-16 11:23:00,
2013-01-16 06:28:00,33.4,32.7,30.10,ENE,67,3.0,3.0,97,0.07,,,0.64,meteohub,2013-01-16 11:28:00,
2013-01-16 06:33:00,33.6,32.9,30.10,NE,49,2.0,3.0,97,0.06,,,0.65,meteohub,2013-01-16 11:33:00,
2013-01-16 06:38:00,33.6,32.9,30.09,ENE,74,2.0,3.0,97,0.07,,,0.66,meteohub,2013-01-16 11:38:00,
2013-01-16 06:43:00,33.6,32.9,30.10,East,87,0.0,3.0,97,0.06,,,0.66,meteohub,2013-01-16 11:43:00,
2013-01-16 06:48:00,33.6,32.9,30.10,NE,40,2.0,3.0,97,0.05,,,0.66,meteohub,2013-01-16 11:48:00,
2013-01-16 06:53:00,33.6,32.9,30.11,NNE,23,1.0,5.0,97,0.06,,,0.67,meteohub,2013-01-16 11:53:00,
2013-01-16 06:58:00,33.8,33.1,30.11,NE,46,0.0,5.0,97,0.05,,,0.67,meteohub,2013-01-16 11:58:00,
2013-01-16 07:03:00,33.8,33.1,30.11,NE,56,1.0,5.0,97,0.05,,,0.67,meteohub,2013-01-16 12:03:00,
2013-01-16 07:08:00,33.6,32.9,30.11,NNW,328,0.0,1.0,97,0.04,,,0.67,meteohub,2013-01-16 12:08:00,
2013-01-16 07:13:00,33.6,32.9,30.11,North,8,0.0,1.0,97,0.05,,,0.68,meteohub,2013-01-16 12:13:00,
2013-01-16 07:18:00,33.6,32.9,30.11,NNW,345,0.0,2.0,97,0.04,,,0.68,meteohub,2013-01-16 12:18:00,
2013-01-16 07:23:00,33.4,32.7,30.10,ENE,60,0.0,2.0,97,0.04,,,0.68,meteohub,2013-01-16 12:23:00,
2013-01-16 07:28:00,33.4,32.7,30.09,ENE,77,1.0,2.0,97,0.03,,,0.68,meteohub,2013-01-16 12:28:00,
2013-01-16 07:33:00,33.4,32.7,30.10,North,6,0.0,2.0,97,0.04,,,0.69,meteohub,2013-01-16 12:33:00,
2013-01-16 07:38:00,33.6,32.9,30.09,NE,41,1.0,2.0,97,0.03,,,0.69,meteohub,2013-01-16 12:38:00,
2013-01-16 07:43:00,33.6,32.9,30.10,ENE,70,0.0,2.0,97,0.04,,,0.70,meteohub,2013-01-16 12:43:00,
2013-01-16 07:48:00,33.6,32.9,30.09,NE,47,0.0,2.0,97,0.04,,,0.70,meteohub,2013-01-16 12:48:00,
2013-01-16 07:53:00,33.6,32.9,30.08,ESE,113,0.0,2.0,97,0.04,,,0.71,meteohub,2013-01-16 12:53:00,
2013-01-16 07:58:00,33.6,32.9,30.08,North,353,0.0,2.0,97,0.04,,,0.71,meteohub,2013-01-16 12:58:00,
2013-01-16 08:03:00,33.6,32.9,30.08,NE,41,1.0,2.0,97,0.04,,,0.71,meteohub,2013-01-16 13:03:00,
2013-01-16 08:08:00,33.6,32.9,30.08,ENE,65,1.0,2.0,97,0.04,,,0.71,meteohub,2013-01-16 13:08:00,
2013-01-16 08:13:00,33.6,32.9,30.08,NNE,26,2.0,3.0,97,0.03,,,0.71,meteohub,2013-01-16 13:13:00,
2013-01-16 08:18:00,33.6,32.9,30.08,NE,44,0.0,3.0,97,0.03,,,0.71,meteohub,2013-01-16 13:18:00,
2013-01-16 08:24:00,33.6,32.9,30.08,NE,44,0.0,3.0,97,0.03,,,0.71,meteohub,2013-01-16 13:24:00,
2013-01-16 08:29:00,33.8,33.1,30.07,ENE,68,0.0,2.0,97,0.02,,,0.71,meteohub,2013-01-16 13:29:00,
2013-01-16 08:34:00,33.8,33.1,30.07,ENE,64,0.0,2.0,97,0.02,,,0.71,meteohub,2013-01-16 13:34:00,
2013-01-16 08:39:00,33.8,33.1,30.07,NE,46,1.0,2.0,97,0.02,,,0.71,meteohub,2013-01-16 13:39:00,
2013-01-16 08:44:00,33.6,32.9,30.06,East,84,1.0,3.0,97,0.01,,,0.71,meteohub,2013-01-16 13:44:00,
2013-01-16 08:49:00,33.8,33.1,30.03,East,99,3.0,3.0,97,0.01,,,0.71,meteohub,2013-01-16 13:49:00,
2013-01-16 08:54:00,34.0,33.3,30.02,ESE,115,2.0,3.0,97,0.00,,,0.71,meteohub,2013-01-16 13:54:00,
2013-01-16 08:59:00,34.0,33.3,30.02,NE,44,1.0,4.0,97,0.01,,,0.72,meteohub,2013-01-16 13:59:00,
2013-01-16 09:04:00,34.0,33.3,30.02,East,80,0.0,4.0,97,0.01,,,0.72,meteohub,2013-01-16 14:04:00,
2013-01-16 09:09:00,34.2,33.4,30.01,East,82,1.0,4.0,97,0.02,,,0.73,meteohub,2013-01-16 14:09:00,
2013-01-16 09:14:00,34.3,33.6,30.01,East,97,1.0,2.0,97,0.02,,,0.73,meteohub,2013-01-16 14:14:00,
2013-01-16 09:19:00,34.3,33.8,30.02,North,11,2.0,2.0,98,0.02,,,0.73,meteohub,2013-01-16 14:19:00,
2013-01-16 09:24:00,34.5,34.0,30.03,NE,43,0.0,2.0,98,0.02,,,0.73,meteohub,2013-01-16 14:24:00,
2013-01-16 09:29:00,34.5,33.8,30.04,North,1,0.0,3.0,97,0.02,,,0.73,meteohub,2013-01-16 14:29:00,
2013-01-16 09:34:00,34.3,33.6,30.04,North,0,0.0,3.0,97,0.02,,,0.73,meteohub,2013-01-16 14:34:00,
2013-01-16 09:39:00,34.3,33.6,30.04,NW,312,1.0,3.0,97,0.02,,,0.73,meteohub,2013-01-16 14:39:00,
2013-01-16 09:44:00,34.3,33.6,30.03,NNW,345,0.0,3.0,97,0.02,,,0.73,meteohub,2013-01-16 14:44:00,
2013-01-16 09:49:00,34.2,33.4,30.03,ENE,67,0.0,3.0,97,0.02,,,0.73,meteohub,2013-01-16 14:49:00,
2013-01-16 09:54:00,34.2,33.4,30.03,North,0,0.0,2.0,97,0.02,,,0.74,meteohub,2013-01-16 14:54:00,
2013-01-16 09:59:00,34.2,33.4,30.03,ENE,70,0.0,1.0,97,0.02,,,0.74,meteohub,2013-01-16 14:59:00,
2013-01-16 10:04:00,34.2,33.4,30.05,NW,311,0.0,1.0,97,0.02,,,0.74,meteohub,2013-01-16 15:04:00,
2013-01-16 10:09:00,34.2,33.4,30.05,NW,316,0.0,1.0,97,0.01,,,0.74,meteohub,2013-01-16 15:09:00,
2013-01-16 10:14:00,34.2,33.4,30.05,NW,324,1.0,1.0,97,0.01,,,0.74,meteohub,2013-01-16 15:14:00,
2013-01-16 10:19:00,34.2,33.4,30.06,NW,315,1.0,2.0,97,0.01,,,0.74,meteohub,2013-01-16 15:19:00,
2013-01-16 10:24:00,34.2,33.4,30.05,North,0,1.0,3.0,97,0.01,,,0.74,meteohub,2013-01-16 15:24:00,
2013-01-16 10:29:00,34.2,33.4,30.05,North,353,1.0,3.0,97,0.01,,,0.74,meteohub,2013-01-16 15:29:00,
2013-01-16 10:34:00,34.2,33.4,30.04,NE,39,0.0,3.0,97,0.02,,,0.75,meteohub,2013-01-16 15:34:00,
2013-01-16 10:39:00,34.0,33.3,30.04,NE,40,0.0,2.0,97,0.02,,,0.75,meteohub,2013-01-16 15:39:00,
2013-01-16 10:44:00,34.2,33.4,30.04,WNW,296,1.0,1.0,97,0.02,,,0.75,meteohub,2013-01-16 15:44:00,
2013-01-16 10:49:00,34.2,33.4,30.05,WNW,291,0.0,2.0,97,0.02,,,0.75,meteohub,2013-01-16 15:49:00,
2013-01-16 10:54:00,34.2,33.4,30.03,NNW,328,0.0,2.0,97,0.02,,,0.76,meteohub,2013-01-16 15:54:00,
2013-01-16 10:59:00,34.2,33.4,30.03,NNW,335,0.0,2.0,97,0.02,,,0.76,meteohub,2013-01-16 15:59:00,
2013-01-16 11:04:00,34.2,33.4,30.02,NW,326,0.0,2.0,97,0.02,,,0.76,meteohub,2013-01-16 16:04:00,
2013-01-16 11:09:00,34.2,33.4,30.02,NW,304,0.0,1.0,97,0.02,,,0.76,meteohub,2013-01-16 16:09:00,
2013-01-16 11:14:00,34.3,33.6,30.02,NW,312,0.0,1.0,97,0.03,,,0.77,meteohub,2013-01-16 16:14:00,
2013-01-16 11:19:00,34.3,33.6,30.02,WNW,302,0.0,2.0,97,0.03,,,0.77,meteohub,2013-01-16 16:19:00,
2013-01-16 11:24:00,34.3,33.6,30.02,NW,309,0.0,2.0,97,0.03,,,0.77,meteohub,2013-01-16 16:24:00,
2013-01-16 11:29:00,34.3,33.6,30.00,NNW,345,0.0,2.0,97,0.04,,,0.78,meteohub,2013-01-16 16:29:00,
2013-01-16 11:34:00,34.5,33.8,30.00,NW,322,0.0,2.0,97,0.03,,,0.78,meteohub,2013-01-16 16:34:00,
2013-01-16 11:39:00,34.7,34.2,30.00,North,10,1.0,2.0,98,0.03,,,0.78,meteohub,2013-01-16 16:39:00,
2013-01-16 11:44:00,34.7,34.2,30.01,NW,315,0.0,2.0,98,0.03,,,0.78,meteohub,2013-01-16 16:44:00,
2013-01-16 11:49:00,34.5,33.8,30.00,North,349,0.0,2.0,97,0.03,,,0.78,meteohub,2013-01-16 16:49:00,
2013-01-16 11:54:00,34.7,34.0,30.00,NNE,18,0.0,3.0,97,0.03,,,0.79,meteohub,2013-01-16 16:54:00,
2013-01-16 11:59:00,34.5,33.8,29.99,NNE,29,0.0,3.0,97,0.03,,,0.79,meteohub,2013-01-16 16:59:00,
2013-01-16 12:04:00,34.5,33.8,29.99,WNW,285,2.0,3.0,97,0.03,,,0.79,meteohub,2013-01-16 17:04:00,
2013-01-16 12:09:00,34.5,33.8,29.99,NW,304,0.0,4.0,97,0.03,,,0.79,meteohub,2013-01-16 17:09:00,
2013-01-16 12:14:00,34.5,33.8,29.98,NNW,340,0.0,4.0,97,0.02,,,0.79,meteohub,2013-01-16 17:14:00,
2013-01-16 12:19:00,34.5,33.8,29.96,SE,142,0.0,4.0,97,0.02,,,0.79,meteohub,2013-01-16 17:19:00,
2013-01-16 12:24:00,34.5,33.8,29.96,ESE,118,0.0,4.0,97,0.02,,,0.79,meteohub,2013-01-16 17:24:00,
2013-01-16 12:29:00,34.5,33.8,29.95,ESE,118,0.0,1.0,97,0.01,,,0.79,meteohub,2013-01-16 17:29:00,
2013-01-16 12:34:00,34.5,33.8,29.95,ENE,58,0.0,1.0,97,0.02,,,0.80,meteohub,2013-01-16 17:34:00,
2013-01-16 12:39:00,34.5,33.8,29.97,NNE,16,1.0,0.0,97,0.02,,,0.80,meteohub,2013-01-16 17:39:00,
2013-01-16 12:44:00,34.5,33.8,29.95,East,80,1.0,3.0,97,0.02,,,0.80,meteohub,2013-01-16 17:44:00,
2013-01-16 12:49:00,34.5,33.8,29.94,East,79,1.0,3.0,97,0.02,,,0.80,meteohub,2013-01-16 17:49:00,
2013-01-16 12:54:00,34.3,33.6,29.91,ESE,108,1.0,3.0,97,0.01,,,0.80,meteohub,2013-01-16 17:54:00,
2013-01-16 12:59:00,34.3,33.6,29.89,SE,127,3.0,3.0,97,0.01,,,0.80,meteohub,2013-01-16 17:59:00,
2013-01-16 13:04:00,34.5,33.8,29.90,East,101,0.0,4.0,97,0.01,,,0.80,meteohub,2013-01-16 18:04:00,
2013-01-16 13:09:00,34.5,34.0,29.89,ESE,114,3.0,4.0,98,0.01,,,0.80,meteohub,2013-01-16 18:09:00,
2013-01-16 13:14:00,34.7,34.2,29.86,SSE,162,0.0,4.0,98,0.01,,,0.80,meteohub,2013-01-16 18:14:00,
2013-01-16 13:19:00,34.9,34.3,29.86,NNW,328,0.0,4.0,98,0.01,,,0.80,meteohub,2013-01-16 18:19:00,
2013-01-16 13:24:00,34.9,34.3,29.88,SW,221,0.0,4.0,98,0.01,,,0.80,meteohub,2013-01-16 18:24:00,
2013-01-16 13:29:00,35.1,34.5,29.92,NW,307,3.0,4.0,98,0.01,,,0.80,meteohub,2013-01-16 18:29:00,
2013-01-16 13:34:00,35.1,34.5,29.91,NW,326,0.0,5.0,98,0.01,,,0.81,meteohub,2013-01-16 18:34:00,
2013-01-16 13:39:00,35.1,34.3,29.90,NNW,336,0.0,6.0,97,0.01,,,0.81,meteohub,2013-01-16 18:39:00,
2013-01-16 13:44:00,34.9,34.2,29.88,NE,49,2.0,6.0,97,0.01,,,0.81,meteohub,2013-01-16 18:44:00,
2013-01-16 13:49:00,34.9,34.2,29.89,NW,318,0.0,6.0,97,0.01,,,0.81,meteohub,2013-01-16 18:49:00,
2013-01-16 13:54:00,34.9,34.2,29.94,NNW,336,2.0,3.0,97,0.01,,,0.81,meteohub,2013-01-16 18:54:00,
2013-01-16 13:59:00,34.9,34.2,29.95,WNW,285,3.0,9.0,97,0.01,,,0.81,meteohub,2013-01-16 18:59:00,
2013-01-16 14:04:00,34.7,34.0,29.94,NNE,19,4.0,9.0,97,0.01,,,0.81,meteohub,2013-01-16 19:04:00,
2013-01-16 14:09:00,34.7,34.0,29.95,West,279,0.0,9.0,97,0.01,,,0.81,meteohub,2013-01-16 19:09:00,
2013-01-16 14:14:00,34.7,34.0,29.95,NW,309,4.0,9.0,97,0.01,,,0.81,meteohub,2013-01-16 19:14:00,
2013-01-16 14:19:00,34.7,34.0,29.97,NW,308,3.0,9.0,97,0.01,,,0.81,meteohub,2013-01-16 19:19:00,
2013-01-16 14:25:00,34.5,33.8,29.96,WSW,239,2.0,9.0,97,0.01,,,0.81,meteohub,2013-01-16 19:25:00,
2013-01-16 14:30:00,34.5,33.8,29.98,NNW,333,2.0,8.0,97,0.01,,,0.81,meteohub,2013-01-16 19:30:00,
2013-01-16 14:35:00,34.7,34.0,29.97,North,8,0.0,8.0,97,0.00,,,0.81,meteohub,2013-01-16 19:35:00,
2013-01-16 14:40:00,34.5,33.8,29.95,East,91,0.0,8.0,97,0.00,,,0.81,meteohub,2013-01-16 19:40:00,
2013-01-16 14:45:00,34.5,33.8,29.94,ESE,105,0.0,5.0,97,0.00,,,0.81,meteohub,2013-01-16 19:45:00,
2013-01-16 14:50:00,34.7,34.0,29.94,West,269,0.0,3.0,97,0.00,,,0.81,meteohub,2013-01-16 19:50:00,
2013-01-16 14:55:00,34.7,34.0,29.94,West,269,0.0,3.0,97,0.00,,,0.81,meteohub,2013-01-16 19:55:00,
2013-01-16 15:00:00,34.9,34.2,29.93,NW,313,0.0,1.0,97,0.00,,,0.81,meteohub,2013-01-16 20:00:00,
2013-01-16 15:05:00,34.9,34.2,29.93,WNW,288,1.0,1.0,97,0.00,,,0.81,meteohub,2013-01-16 20:05:00,
2013-01-16 15:10:00,34.9,34.3,29.95,West,273,2.0,2.0,98,0.00,,,0.81,meteohub,2013-01-16 20:10:00,
2013-01-16 15:15:00,35.1,34.3,29.94,East,86,0.0,3.0,97,0.00,,,0.81,meteohub,2013-01-16 20:15:00,
2013-01-16 15:20:00,35.1,34.3,29.95,NNW,343,1.0,3.0,97,0.00,,,0.81,meteohub,2013-01-16 20:20:00,
2013-01-16 15:25:00,35.1,34.5,29.95,WNW,287,0.0,3.0,98,0.00,,,0.81,meteohub,2013-01-16 20:25:00,
2013-01-16 15:30:00,35.1,34.3,29.94,WNW,293,0.0,3.0,97,0.00,,,0.81,meteohub,2013-01-16 20:30:00,
2013-01-16 15:35:00,35.1,34.3,29.95,WNW,302,0.0,3.0,97,0.00,,,0.81,meteohub,2013-01-16 20:35:00,
2013-01-16 15:40:00,35.2,34.5,29.96,WNW,289,2.0,3.0,97,0.00,,,0.81,meteohub,2013-01-16 20:40:00,
2013-01-16 15:45:00,35.2,34.7,29.97,NW,317,1.0,3.0,98,0.00,,,0.81,meteohub,2013-01-16 20:45:00,
2013-01-16 15:50:00,35.4,34.7,29.97,NW,312,3.0,3.0,97,0.00,,,0.81,meteohub,2013-01-16 20:50:00,
2013-01-16 15:55:00,35.2,34.5,29.95,WNW,297,0.0,4.0,97,0.00,,,0.81,meteohub,2013-01-16 20:55:00,
2013-01-16 16:00:00,35.4,34.7,29.94,WNW,288,0.0,4.0,97,0.00,,,0.81,meteohub,2013-01-16 21:00:00,
2013-01-16 16:05:00,35.4,34.7,29.95,West,277,2.0,4.0,97,0.00,,,0.82,meteohub,2013-01-16 21:05:00,
2013-01-16 16:10:00,35.4,34.7,29.95,WNW,291,1.0,3.0,97,0.01,,,0.82,meteohub,2013-01-16 21:10:00,
2013-01-16 16:15:00,35.4,34.7,29.95,WNW,297,3.0,4.0,97,0.01,,,0.82,meteohub,2013-01-16 21:15:00,
2013-01-16 16:20:00,35.6,34.9,29.96,WNW,283,5.0,5.0,97,0.01,,,0.82,meteohub,2013-01-16 21:20:00,
2013-01-16 16:25:00,35.6,34.9,29.97,WNW,294,4.0,7.0,97,0.01,,,0.82,meteohub,2013-01-16 21:25:00,
2013-01-16 16:30:00,35.6,34.9,29.96,West,264,2.0,7.0,97,0.01,,,0.82,meteohub,2013-01-16 21:30:00,
2013-01-16 16:35:00,35.6,34.9,29.96,WNW,283,3.0,7.0,97,0.01,,,0.82,meteohub,2013-01-16 21:35:00,
2013-01-16 16:40:00,35.6,34.9,29.95,NW,311,5.0,6.0,97,0.01,,,0.82,meteohub,2013-01-16 21:40:00,
2013-01-16 16:45:00,35.6,34.5,29.95,WNW,290,3.0,6.0,96,0.01,,,0.82,meteohub,2013-01-16 21:45:00,
2013-01-16 16:50:00,35.6,34.5,29.96,NW,304,3.0,6.0,96,0.01,,,0.82,meteohub,2013-01-16 21:50:00,
2013-01-16 16:55:00,35.8,34.7,29.96,West,281,4.0,7.0,96,0.01,,,0.82,meteohub,2013-01-16 21:55:00,
2013-01-16 17:00:00,35.8,35.1,29.96,WNW,292,3.0,7.0,97,0.01,,,0.82,meteohub,2013-01-16 22:00:00,
2013-01-16 17:05:00,35.8,35.1,29.96,West,259,2.0,7.0,97,0.00,,,0.82,meteohub,2013-01-16 22:05:00,
2013-01-16 17:10:00,35.8,34.7,29.96,WNW,290,5.0,7.0,96,0.00,,,0.82,meteohub,2013-01-16 22:10:00,
2013-01-16 17:15:00,35.8,34.7,29.96,WNW,283,1.0,7.0,96,0.00,,,0.82,meteohub,2013-01-16 22:15:00,
2013-01-16 17:20:00,35.8,34.7,29.97,SW,233,1.0,7.0,96,0.00,,,0.82,meteohub,2013-01-16 22:20:00,
2013-01-16 17:25:00,36.0,34.9,29.97,WNW,284,4.0,6.0,96,0.00,,,0.82,meteohub,2013-01-16 22:25:00,
2013-01-16 17:30:00,36.0,34.9,29.97,WNW,283,0.0,6.0,96,0.00,,,0.82,meteohub,2013-01-16 22:30:00,
2013-01-16 17:35:00,35.8,34.7,29.96,West,278,1.0,5.0,96,0.00,,,0.82,meteohub,2013-01-16 22:35:00,
2013-01-16 17:40:00,35.8,34.7,29.97,WSW,252,4.0,6.0,96,0.00,,,0.82,meteohub,2013-01-16 22:40:00,
2013-01-16 17:45:00,35.8,34.7,29.96,WNW,283,5.0,10.0,96,0.00,,,0.82,meteohub,2013-01-16 22:45:00,
2013-01-16 17:50:00,35.8,34.7,29.96,West,278,2.0,10.0,96,0.00,,,0.82,meteohub,2013-01-16 22:50:00,
2013-01-16 17:55:00,35.8,34.7,29.96,West,266,3.0,10.0,96,0.00,,,0.82,meteohub,2013-01-16 22:55:00,
2013-01-16 18:00:00,35.8,34.7,29.96,NW,321,0.0,8.0,96,0.00,,,0.82,meteohub,2013-01-16 23:00:00,
2013-01-16 18:05:00,35.8,34.7,29.96,West,259,1.0,6.0,96,0.00,,,0.82,meteohub,2013-01-16 23:05:00,
2013-01-16 18:10:00,36.0,34.9,29.97,West,263,3.0,6.0,96,0.00,,,0.82,meteohub,2013-01-16 23:10:00,
2013-01-16 18:15:00,36.0,34.9,29.96,West,277,1.0,6.0,96,0.00,,,0.82,meteohub,2013-01-16 23:15:00,
2013-01-16 18:20:00,36.0,34.9,29.96,West,266,1.0,6.0,96,0.00,,,0.82,meteohub,2013-01-16 23:20:00,
2013-01-16 18:25:00,36.0,34.9,29.96,NW,316,1.0,6.0,96,0.00,,,0.82,meteohub,2013-01-16 23:25:00,
2013-01-16 18:30:00,36.0,34.9,29.96,WSW,250,0.0,5.0,96,0.00,,,0.82,meteohub,2013-01-16 23:30:00,
2013-01-16 18:35:00,36.0,34.7,29.97,WSW,239,1.0,5.0,95,0.00,,,0.82,meteohub,2013-01-16 23:35:00,
2013-01-16 18:40:00,36.0,34.9,29.96,West,260,1.0,6.0,96,0.00,,,0.82,meteohub,2013-01-16 23:40:00,
2013-01-16 18:45:00,36.0,34.7,29.96,ESE,115,1.0,7.0,95,0.00,,,0.82,meteohub,2013-01-16 23:45:00,
2013-01-16 18:51:00,36.0,34.7,29.94,WSW,253,1.0,7.0,95,0.00,,,0.82,meteohub,2013-01-16 23:51:00,
2013-01-16 18:56:00,36.1,34.9,29.97,WSW,240,1.0,7.0,95,0.00,,,0.82,meteohub,2013-01-16 23:56:00,
2013-01-16 19:01:00,36.1,34.9,29.97,WSW,253,0.0,6.0,95,0.00,,,0.82,meteohub,2013-01-17 00:01:00,
2013-01-16 19:06:00,36.3,35.1,29.98,West,270,0.0,6.0,95,0.00,,,0.82,meteohub,2013-01-17 00:06:00,
2013-01-16 19:11:00,36.3,35.1,29.98,WNW,301,4.0,8.0,95,0.00,,,0.82,meteohub,2013-01-17 00:11:00,
2013-01-16 19:16:00,36.3,35.1,29.97,West,276,5.0,8.0,95,0.00,,,0.82,meteohub,2013-01-17 00:16:00,
2013-01-16 19:21:00,36.3,35.1,29.97,West,281,9.0,9.0,95,0.00,,,0.82,meteohub,2013-01-17 00:21:00,
2013-01-16 19:26:00,36.3,35.1,29.97,WNW,283,3.0,10.0,95,0.00,,,0.82,meteohub,2013-01-17 00:26:00,
2013-01-16 19:31:00,36.3,35.1,29.97,WNW,291,6.0,10.0,95,0.00,,,0.82,meteohub,2013-01-17 00:31:00,
2013-01-16 19:36:00,36.3,35.1,29.97,West,273,3.0,10.0,95,0.00,,,0.82,meteohub,2013-01-17 00:36:00,
2013-01-16 19:41:00,36.3,35.1,29.97,West,281,6.0,10.0,95,0.00,,,0.82,meteohub,2013-01-17 00:41:00,
2013-01-16 19:46:00,36.3,35.1,29.96,WNW,288,4.0,10.0,95,0.00,,,0.82,meteohub,2013-01-17 00:46:00,
2013-01-16 19:51:00,36.3,35.1,29.97,WNW,290,3.0,10.0,95,0.00,,,0.82,meteohub,2013-01-17 00:51:00,
2013-01-16 19:56:00,36.3,35.1,29.97,West,263,2.0,9.0,95,0.00,,,0.82,meteohub,2013-01-17 00:56:00,
2013-01-16 20:01:00,36.3,35.1,29.96,WNW,283,4.0,8.0,95,0.00,,,0.82,meteohub,2013-01-17 01:01:00,
2013-01-16 20:06:00,36.3,35.1,29.97,West,264,1.0,8.0,95,0.00,,,0.82,meteohub,2013-01-17 01:06:00,
2013-01-16 20:11:00,36.5,35.2,29.97,West,270,3.0,8.0,95,0.00,,,0.82,meteohub,2013-01-17 01:11:00,
2013-01-16 20:16:00,36.5,35.2,29.98,WSW,239,2.0,8.0,95,0.00,,,0.82,meteohub,2013-01-17 01:16:00,
2013-01-16 20:21:00,36.7,35.4,29.98,WSW,242,1.0,8.0,95,0.00,,,0.82,meteohub,2013-01-17 01:21:00,
2013-01-16 20:26:00,36.7,35.4,29.98,WNW,287,4.0,10.0,95,0.00,,,0.82,meteohub,2013-01-17 01:26:00,
2013-01-16 20:31:00,36.7,35.4,29.98,West,278,4.0,11.0,95,0.00,,,0.82,meteohub,2013-01-17 01:31:00,
2013-01-16 20:36:00,36.7,35.4,29.99,West,281,2.0,11.0,95,0.00,,,0.82,meteohub,2013-01-17 01:36:00,
2013-01-16 20:41:00,36.7,35.4,29.99,West,274,6.0,11.0,95,0.00,,,0.82,meteohub,2013-01-17 01:41:00,
2013-01-16 20:46:00,36.7,35.4,29.98,WNW,292,5.0,11.0,95,0.00,,,0.82,meteohub,2013-01-17 01:46:00,
2013-01-16 20:51:00,36.9,35.6,29.98,NW,304,4.0,8.0,95,0.00,,,0.82,meteohub,2013-01-17 01:51:00,
2013-01-16 20:56:00,36.9,35.6,29.98,WNW,298,6.0,10.0,95,0.00,,,0.82,meteohub,2013-01-17 01:56:00,
2013-01-16 21:01:00,36.9,35.2,29.97,West,270,4.0,10.0,94,0.00,,,0.82,meteohub,2013-01-17 02:01:00,
2013-01-16 21:06:00,36.9,35.2,29.98,West,263,3.0,10.0,94,0.00,,,0.82,meteohub,2013-01-17 02:06:00,
2013-01-16 21:11:00,36.9,35.2,29.98,West,281,3.0,9.0,94,0.00,,,0.82,meteohub,2013-01-17 02:11:00,
2013-01-16 21:16:00,36.9,35.2,29.98,NW,304,2.0,9.0,94,0.00,,,0.82,meteohub,2013-01-17 02:16:00,
2013-01-16 21:21:00,36.9,35.2,29.98,WNW,294,3.0,10.0,94,0.00,,,0.82,meteohub,2013-01-17 02:21:00,
2013-01-16 21:26:00,36.9,35.2,29.97,West,266,2.0,10.0,94,0.00,,,0.82,meteohub,2013-01-17 02:26:00,
2013-01-16 21:31:00,37.0,35.4,29.98,WNW,292,6.0,10.0,94,0.00,,,0.82,meteohub,2013-01-17 02:31:00,
2013-01-16 21:36:00,37.0,35.4,29.98,WNW,294,6.0,11.0,94,0.00,,,0.82,meteohub,2013-01-17 02:36:00,
2013-01-16 21:41:00,37.0,35.4,29.97,WNW,287,5.0,11.0,94,0.00,,,0.82,meteohub,2013-01-17 02:41:00,
2013-01-16 21:46:00,37.0,35.4,29.97,WNW,297,3.0,11.0,94,0.00,,,0.82,meteohub,2013-01-17 02:46:00,
2013-01-16 21:51:00,37.0,35.4,29.98,NW,304,5.0,8.0,94,0.00,,,0.82,meteohub,2013-01-17 02:51:00,
2013-01-16 21:56:00,36.9,35.2,29.97,West,273,4.0,8.0,94,0.00,,,0.82,meteohub,2013-01-17 02:56:00,
2013-01-16 22:01:00,37.0,35.2,29.96,WSW,255,1.0,8.0,93,0.00,,,0.82,meteohub,2013-01-17 03:01:00,
2013-01-16 22:06:00,37.0,35.2,29.96,SW,215,1.0,9.0,93,0.00,,,0.82,meteohub,2013-01-17 03:06:00,
2013-01-16 22:11:00,37.0,35.2,29.97,West,281,3.0,9.0,93,0.00,,,0.82,meteohub,2013-01-17 03:11:00,
2013-01-16 22:17:00,37.0,35.2,29.96,WNW,290,2.0,9.0,93,0.00,,,0.82,meteohub,2013-01-17 03:17:00,
2013-01-16 22:22:00,37.0,35.4,29.98,WNW,295,4.0,6.0,94,0.00,,,0.82,meteohub,2013-01-17 03:22:00,
2013-01-16 22:27:00,37.2,35.4,29.98,WNW,284,2.0,9.0,93,0.00,,,0.82,meteohub,2013-01-17 03:27:00,
2013-01-16 22:32:00,37.2,35.4,29.97,West,278,4.0,9.0,93,0.00,,,0.82,meteohub,2013-01-17 03:32:00,
2013-01-16 22:37:00,37.2,35.4,29.97,WNW,285,3.0,9.0,93,0.00,,,0.82,meteohub,2013-01-17 03:37:00,
2013-01-16 22:42:00,37.2,35.4,29.98,WNW,294,4.0,7.0,93,0.00,,,0.82,meteohub,2013-01-17 03:42:00,
2013-01-16 22:47:00,37.2,35.4,29.98,West,271,4.0,7.0,93,0.00,,,0.82,meteohub,2013-01-17 03:47:00,
2013-01-16 22:52:00,37.2,35.4,29.98,West,275,3.0,8.0,93,0.00,,,0.82,meteohub,2013-01-17 03:52:00,
2013-01-16 22:57:00,37.2,35.4,29.97,WNW,288,3.0,8.0,93,0.00,,,0.82,meteohub,2013-01-17 03:57:00,
2013-01-16 23:02:00,37.2,35.4,29.98,WNW,290,7.0,9.0,93,0.00,,,0.82,meteohub,2013-01-17 04:02:00,
2013-01-16 23:07:00,37.4,35.6,29.99,West,262,7.0,11.0,93,0.00,,,0.82,meteohub,2013-01-17 04:07:00,
2013-01-16 23:12:00,37.4,35.2,29.98,West,262,2.0,11.0,92,0.00,,,0.82,meteohub,2013-01-17 04:12:00,
2013-01-16 23:17:00,37.4,35.2,29.99,West,273,5.0,11.0,92,0.00,,,0.82,meteohub,2013-01-17 04:17:00,
2013-01-16 23:22:00,37.6,35.4,29.99,WNW,291,3.0,9.0,92,0.00,,,0.82,meteohub,2013-01-17 04:22:00,
2013-01-16 23:27:00,37.4,35.2,29.99,WNW,294,6.0,9.0,92,0.00,,,0.82,meteohub,2013-01-17 04:27:00,
2013-01-16 23:32:00,37.6,35.4,29.98,WNW,300,5.0,9.0,92,0.00,,,0.82,meteohub,2013-01-17 04:32:00,
2013-01-16 23:37:00,37.4,35.2,29.97,West,274,2.0,8.0,92,0.00,,,0.82,meteohub,2013-01-17 04:37:00,
2013-01-16 23:42:00,37.6,35.4,29.98,WNW,299,4.0,8.0,92,0.00,,,0.82,meteohub,2013-01-17 04:42:00,
2013-01-16 23:47:00,37.6,35.4,29.99,WNW,283,2.0,8.0,92,0.00,,,0.82,meteohub,2013-01-17 04:47:00,
2013-01-16 23:52:00,37.6,35.4,29.99,WNW,292,4.0,9.0,92,0.00,,,0.82,meteohub,2013-01-17 04:52:00,
2013-01-16 23:57:00,37.8,35.6,29.99,WNW,292,6.0,9.0,92,0.00,,,0.82,meteohub,2013-01-17 04:57:00,